Location: Bj�rn�ya
(74.5000°N, 19.0000°E)
Time: 07:18:48
(UTC+02:00)

Envisat - Pass Details

Date: 07 February 2022
Orbit: 764 x 765 km, 98.2° (Epoch: 20 May)

Event Time Altitude Azimuth Distance (km) Brightness Sun altitude
Rises 15:55:00 0° 185° (S) 3,232 6.9 -6.9°
Reaches altitude 10° 15:57:26 10° 193° (SSW) 2,309 6.2 -7.1°
Maximum altitude 16:02:14 40° 263° (W) 1,124 4.5 -7.3°
Drops below altitude 10° 16:07:03 10° 333° (NNW) 2,319 5.5 -7.6°
Sets 16:09:30 0° 341° (NNW) 3,249 6.1 -7.7°
